Total_Precipitation_Accumulation
2.90 3.05 3.04 2.99 3.06 3.04 3.14 3.38 3.59 3.33 2.91 2.56 2.40 2.25 2.38 2.50 2.66 2.28 2.33 2.50 2.28 2.10 2.04 1.93 1.83 1.74 1.79 1.97 2.01 2.04 2.14 2.22 2.33 2.45 2.63 2.85 3.09 3.37
2.78 3.00 3.00 2.89 3.08 3.17 3.27 3.33 3.42 3.49 3.18 2.61 2.48 2.30 2.35 2.35 2.74 2.31 2.36 2.55 2.32 2.04 1.88 1.73 1.59 1.51 1.55 1.68 1.69 1.74 1.80 1.82 1.87 1.95 2.10 2.27 2.50 2.76
2.61 2.72 2.81 2.90 3.09 3.11 3.15 3.20 3.32 3.39 3.26 2.69 2.50 2.48 2.49 2.50 2.59 2.44 2.36 2.34 2.17 2.02 1.78 1.62 1.54 1.47 1.45 1.52 1.51 1.49 1.56 1.62 1.64 1.69 1.80 1.93 2.04 2.20
2.48 2.56 2.58 2.67 2.85 2.77 2.85 2.89 2.99 3.15 3.13 2.97 2.84 2.69 2.63 2.58 2.50 2.36 2.11 1.87 1.83 1.90 1.71 1.60 1.57 1.51 1.47 1.49 1.46 1.44 1.44 1.42 1.43 1.48 1.57 1.64 1.71 1.83
2.24 2.28 2.32 2.45 2.42 2.35 2.38 2.36 2.47 2.59 2.88 2.87 2.70 2.79 2.66 2.61 2.74 2.43 2.20 2.18 1.68 1.69 1.60 1.53 1.51 1.45 1.39 1.36 1.32 1.29 1.28 1.22 1.17 1.19 1.29 1.42 1.50 1.52
1.93 1.93 1.92 1.92 1.92 1.97 1.97 2.05 2.21 2.55 2.80 2.76 2.53 2.45 2.47 2.46 2.73 2.59 2.46 2.35 2.03 1.57 1.54 1.43 1.38 1.36 1.33 1.25 1.18 1.12 1.11 1.14 1.15 1.13 1.15 1.19 1.25 1.29
1.83 1.78 1.70 1.72 1.77 1.72 1.58 1.78 2.09 2.43 2.57 2.62 2.50 2.34 2.25 2.35 2.40 2.29 2.28 2.32 2.21 1.84 1.76 1.50 1.37 1.34 1.36 1.32 1.25 1.12 1.01 0.98 1.01 1.03 1.06 1.07 1.11 1.17
1.81 1.68 1.58 1.58 1.55 1.49 1.45 1.54 1.73 1.96 2.18 2.34 2.32 2.25 2.19 2.23 2.34 2.31 2.34 2.42 2.31 2.01 1.99 1.84 1.59 1.66 1.59 1.41 1.32 1.18 1.08 1.02 0.98 0.99 1.05 1.08 1.07 1.08
1.77 1.78 1.53 1.33 1.48 1.44 1.47 1.50 1.49 1.55 1.73 2.01 2.15 2.08 2.13 2.24 2.49 2.40 2.45 2.49 2.35 2.13 2.24 2.17 1.96 1.90 1.61 1.44 1.46 1.24 1.12 1.05 1.02 1.01 1.05 1.09 1.13 1.15
1.62 1.66 1.71 1.65 1.54 1.57 1.55 1.52 1.46 1.48 1.55 1.63 1.84 1.92 1.90 2.07 2.35 2.34 2.39 2.43 2.34 2.18 2.26 2.30 2.03 1.95 1.62 1.69 1.66 1.35 1.16 1.10 1.04 0.97 0.99 1.04 1.13 1.21
1.46 1.46 1.44 1.45 1.48 1.56 1.63 1.70 1.68 1.61 1.42 1.45 1.51 1.63 1.75 1.87 2.02 2.13 2.31 2.54 2.48 2.27 2.20 2.30 2.15 2.05 1.86 1.86 1.72 1.52 1.33 1.27 1.17 1.02 0.94 0.96 1.04 1.17
1.53 1.49 1.40 1.29 1.28 1.27 1.33 1.62 1.79 1.68 1.56 1.55 1.63 1.75 1.85 1.96 1.97 2.03 2.24 2.45 2.47 2.47 2.19 2.26 2.23 2.24 2.18 1.87 1.74 1.66 1.56 1.55 1.44 1.22 1.04 1.00 1.08 1.09
1.43 1.41 1.35 1.20 1.03 1.04 1.15 1.38 1.54 1.58 1.69 1.92 2.11 2.12 2.11 2.09 1.97 1.91 2.09 2.25 2.35 2.36 2.08 2.18 2.26 2.35 2.42 2.09 1.74 1.71 1.73 1.76 1.69 1.47 1.25 1.20 1.21 1.14
1.35 1.35 1.29 1.19 1.02 1.02 1.08 1.22 1.34 1.50 1.76 2.06 2.21 2.14 1.91 1.75 1.76 1.78 1.86 2.02 2.10 2.09 2.02 2.11 2.24 2.34 2.35 2.10 1.83 1.72 1.81 1.89 1.87 1.75 1.54 1.47 1.41 1.29
1.20 1.27 1.23 1.21 1.18 1.19 1.23 1.27 1.36 1.56 1.80 1.93 1.94 1.81 1.67 1.61 1.69 1.81 1.79 1.93 1.98 1.80 1.74 1.78 1.99 2.16 2.29 2.14 1.97 1.93 2.01 2.14 2.08 2.03 1.91 1.68 1.55 1.50
1.18 1.27 1.35 1.36 1.34 1.33 1.36 1.42 1.47 1.60 1.66 1.73 1.72 1.64 1.59 1.62 1.68 1.70 1.79 1.92 2.08 1.96 1.83 1.77 1.85 2.08 2.17 2.06 2.08 2.09 2.11 2.36 2.31 2.20 2.16 2.06 1.82 1.59
1.16 1.29 1.49 1.55 1.53 1.46 1.41 1.42 1.45 1.50 1.53 1.48 1.52 1.53 1.59 1.62 1.62 1.64 1.78 1.87 1.99 1.97 1.96 1.94 1.96 2.01 1.93 1.93 2.00 1.97 2.04 2.21 2.30 2.29 2.31 2.37 2.26 1.98
1.21 1.39 1.53 1.58 1.58 1.44 1.37 1.32 1.31 1.34 1.31 1.32 1.39 1.48 1.55 1.55 1.57 1.60 1.72 1.86 1.95 1.93 1.95 2.00 2.04 2.13 2.11 1.94 1.92 1.96 1.95 2.16 2.30 2.29 2.23 2.37 2.46 2.22
1.17 1.30 1.44 1.52 1.56 1.40 1.31 1.32 1.33 1.32 1.33 1.35 1.38 1.42 1.50 1.53 1.57 1.62 1.69 1.80 1.88 1.91 1.91 1.94 1.98 2.03 2.06 1.99 1.87 1.89 1.97 2.10 2.20 2.19 2.18 2.22 2.34 2.25
1.21 1.26 1.35 1.45 1.48 1.43 1.35 1.37 1.37 1.38 1.40 1.42 1.42 1.44 1.52 1.55 1.52 1.52 1.59 1.63 1.72 1.83 1.89 1.89 1.91 1.89 1.89 1.89 1.99 1.96 1.84 1.79 1.83 1.94 1.99 2.08 2.14 2.12
1.16 1.18 1.21 1.29 1.37 1.44 1.47 1.44 1.39 1.37 1.39 1.46 1.47 1.48 1.52 1.54 1.52 1.46 1.49 1.54 1.60 1.70 1.81 1.82 1.84 1.82 1.79 1.87 1.94 1.92 1.83 1.87 1.83 1.78 1.82 1.95 1.92 1.75
1.13 1.17 1.19 1.21 1.26 1.32 1.39 1.39 1.36 1.30 1.29 1.39 1.47 1.53 1.55 1.56 1.50 1.42 1.46 1.57 1.63 1.67 1.71 1.72 1.70 1.76 1.81 1.90 1.92 1.92 1.85 1.73 1.71 1.74 1.70 1.57 1.47 1.45
1.25 1.22 1.18 1.19 1.20 1.21 1.24 1.30 1.32 1.26 1.25 1.33 1.43 1.50 1.50 1.50 1.48 1.41 1.38 1.41 1.45 1.49 1.59 1.71 1.73 1.75 1.77 1.77 1.80 1.78 1.68 1.59 1.48 1.47 1.53 1.52 1.39 1.31